Weather History for KBID - March, 2013

Change the Weather History Date:

Sunday, March 3, 2013

  Actual Average Record
Temperature  
Mean Temperature 36 °F -  
Max Temperature 39 °F - - ()
Min Temperature 32 °F - - ()
Degree Days  
Heating Degree Days 30    
Moisture  
Dew Point 24 °F    
Average Humidity 64    
Maximum Humidity 75    
Minimum Humidity 56    
Precipitation  
Precipitation 0.00 in - - ()
Sea Level Pressure  
Sea Level Pressure 29.62 in    
Wind  
Wind Speed 9 mph (NW)    
Max Wind Speed 16 mph    
Max Gust Speed 23 mph    
Visibility 10 miles    
Events      
T = Trace of Precipitation, MM = Missing Value Source: NWS Daily Summary

Daily Weather History Graph

Daily Weather History Graph

Search for Another Location

Airport or City:

Trip Planner

Search our weather history database for the weather conditions in past years. The results will help you decide how hot, cold, wet, or windy it might be!

Date:

Astronomy

Mar. 03, 2013 Rise Set
Actual Time 6:17 AM EST 5:39 PM EST
Civil Twilight 5:49 AM EST 6:07 PM EST
Nautical Twilight 5:17 AM EST 6:39 PM EST
Astronomical Twilight 4:45 AM EST 7:11 PM EST
Moon No Moon Rise 9:26 AM EST (3/3)
Length of Visible Light 12h 17m
Length of Day
11h 22m
Waning Gibbous, 64% of the Moon is Illuminated
Mar 3
Waning Gibbous
Mar 4
Last Quarter
Mar 11
New
Mar 19
First Quarter
Mar 27
Full

Hourly Weather History & Observations

Time (EST) Temp. Windchill Dew Point Humidity Pressure Visibility Wind Dir Wind Speed Gust Speed Precip Events Conditions
12:15 AM 37.4 °F 31.4 °F 26.6 °F 65% 29.64 in 10.0 mi NNW 8.1 mph - N/A   Overcast
12:35 AM 35.6 °F 30.7 °F 26.6 °F 70% 29.65 in 10.0 mi NW 5.8 mph - N/A   Overcast
12:55 AM 35.6 °F 29.2 °F 26.6 °F 70% 29.65 in 10.0 mi NNW 8.1 mph - N/A   Overcast
1:15 AM 35.6 °F 29.2 °F 26.6 °F 70% 29.65 in 10.0 mi NNW 8.1 mph - N/A   Overcast
1:35 AM 35.6 °F 29.9 °F 26.6 °F 70% 29.65 in 10.0 mi NNW 6.9 mph - N/A   Overcast
1:55 AM 35.6 °F 30.7 °F 26.6 °F 70% 29.64 in 10.0 mi NNW 5.8 mph - N/A   Overcast
2:15 AM 35.6 °F 29.2 °F 24.8 °F 65% 29.64 in 10.0 mi NW 8.1 mph - N/A   Overcast
3:15 AM 35.6 °F 30.7 °F 24.8 °F 65% 29.63 in 10.0 mi NNW 5.8 mph - N/A   Overcast
3:35 AM 35.6 °F 29.9 °F 24.8 °F 65% 29.63 in 10.0 mi NNW 6.9 mph - N/A   Overcast
3:55 AM 35.6 °F 31.7 °F 24.8 °F 65% 29.63 in 10.0 mi NNW 4.6 mph - N/A   Overcast
4:15 AM 35.6 °F 30.7 °F 24.8 °F 65% 29.63 in 10.0 mi NW 5.8 mph - N/A   Overcast
4:35 AM 33.8 °F 27.7 °F 24.8 °F 70% 29.63 in 10.0 mi NW 6.9 mph - N/A   Overcast
4:55 AM 33.8 °F 26.4 °F 24.8 °F 70% 29.63 in 10.0 mi NNW 9.2 mph - N/A   Overcast
5:15 AM 33.8 °F 27.0 °F 23.0 °F 65% 29.64 in 10.0 mi NNW 8.1 mph - N/A   Overcast
5:55 AM 33.8 °F 27.0 °F 23.0 °F 65% 29.64 in 10.0 mi NNW 8.1 mph - N/A   Overcast
6:15 AM 33.8 °F 25.8 °F 21.2 °F 60% 29.64 in 10.0 mi NW 10.4 mph - N/A   Overcast
6:35 AM 33.8 °F 27.7 °F 23.0 °F 65% 29.64 in 10.0 mi NW 6.9 mph - N/A   Overcast
6:55 AM 33.8 °F 27.0 °F 23.0 °F 65% 29.65 in 10.0 mi NW 8.1 mph - N/A   Overcast
7:15 AM 33.8 °F 27.7 °F 23.0 °F 65% 29.65 in 10.0 mi NW 6.9 mph - N/A   Overcast
7:35 AM 33.8 °F 26.4 °F 23.0 °F 65% 29.65 in 10.0 mi NW 9.2 mph - N/A   Overcast
8:15 AM 33.8 °F 26.4 °F 23.0 °F 65% 29.66 in 10.0 mi NW 9.2 mph - N/A   Overcast
8:35 AM 33.8 °F 26.4 °F 23.0 °F 65% 29.65 in 10.0 mi NW 9.2 mph - N/A   Overcast
8:55 AM 33.8 °F 27.0 °F 21.2 °F 60% 29.64 in 10.0 mi NW 8.1 mph - N/A   Overcast
9:15 AM 33.8 °F 25.8 °F 23.0 °F 65% 29.64 in 10.0 mi NW 10.4 mph - N/A   Overcast
9:35 AM 33.8 °F 27.7 °F 21.2 °F 60% 29.64 in 10.0 mi NW 6.9 mph - N/A   Overcast
9:55 AM 35.6 °F 28.0 °F 21.2 °F 56% 29.63 in 10.0 mi WNW 10.4 mph - N/A   Overcast
10:15 AM 35.6 °F 27.5 °F 23.0 °F 60% 29.63 in 10.0 mi WNW 11.5 mph - N/A   Overcast
10:55 AM 35.6 °F 29.2 °F 23.0 °F 60% 29.63 in 10.0 mi NW 8.1 mph - N/A   Overcast
11:15 AM 35.6 °F 28.6 °F 23.0 °F 60% 29.63 in 10.0 mi NW 9.2 mph - N/A   Overcast
11:35 AM 37.4 °F 32.1 °F 24.8 °F 60% 29.63 in 10.0 mi WNW 6.9 mph - N/A   Overcast
11:55 AM 37.4 °F 30.8 °F 23.0 °F 56% 29.62 in 10.0 mi West 9.2 mph - N/A   Overcast
12:35 PM 37.4 °F 29.8 °F 24.8 °F 60% 29.61 in 10.0 mi West 11.5 mph - N/A   Overcast
1:15 PM 37.4 °F 29.8 °F 24.8 °F 60% 29.60 in 10.0 mi West 11.5 mph 19.6 mph N/A   Overcast
1:35 PM 37.4 °F 28.2 °F 23.0 °F 56% 29.59 in 10.0 mi West 16.1 mph 20.7 mph N/A   Overcast
1:55 PM 37.4 °F 28.9 °F 23.0 °F 56% 29.59 in 10.0 mi West 13.8 mph 20.7 mph N/A   Overcast
2:15 PM 37.4 °F 28.2 °F 24.8 °F 60% 29.59 in 10.0 mi West 16.1 mph 20.7 mph N/A   Overcast
2:35 PM 37.4 °F 28.2 °F 23.0 °F 56% 29.59 in 10.0 mi West 16.1 mph 20.7 mph N/A   Overcast
2:55 PM 37.4 °F 28.2 °F 23.0 °F 56% 29.59 in 10.0 mi West 16.1 mph 21.9 mph N/A   Overcast
3:15 PM 37.4 °F 28.5 °F 24.8 °F 60% 29.58 in 10.0 mi West 15.0 mph 23.0 mph N/A   Overcast
3:55 PM 39.2 °F 32.0 °F 24.8 °F 56% 29.58 in 10.0 mi WNW 11.5 mph 18.4 mph N/A   Overcast
4:15 PM 37.4 °F 29.8 °F 23.0 °F 56% 29.58 in 10.0 mi WNW 11.5 mph 17.3 mph N/A   Overcast
4:35 PM 37.4 °F 29.8 °F 23.0 °F 56% 29.59 in 10.0 mi WNW 11.5 mph 16.1 mph N/A   Overcast
4:55 PM 37.4 °F 30.8 °F 24.8 °F 60% 29.59 in 10.0 mi WNW 9.2 mph - N/A   Overcast
5:15 PM 37.4 °F 30.8 °F 23.0 °F 56% 29.59 in 10.0 mi WNW 9.2 mph 16.1 mph N/A   Overcast
5:35 PM 37.4 °F 30.8 °F 23.0 °F 56% 29.59 in 10.0 mi WNW 9.2 mph - N/A   Overcast
5:55 PM 37.4 °F 32.8 °F 24.8 °F 60% 29.59 in 10.0 mi NW 5.8 mph - N/A   Overcast
6:35 PM 37.4 °F 32.1 °F 24.8 °F 60% 29.60 in 10.0 mi NW 6.9 mph - N/A   Overcast
6:55 PM 37.4 °F 30.8 °F 23.0 °F 56% 29.60 in 10.0 mi NW 9.2 mph - N/A   Overcast
7:35 PM 35.6 °F 27.5 °F 24.8 °F 65% 29.62 in 10.0 mi NW 11.5 mph 16.1 mph N/A   Overcast
7:55 PM 35.6 °F 28.0 °F 24.8 °F 65% 29.62 in 10.0 mi NW 10.4 mph 17.3 mph N/A   Overcast
8:15 PM 33.8 °F 25.8 °F 24.8 °F 70% 29.63 in 10.0 mi NW 10.4 mph 17.3 mph N/A   Overcast
8:35 PM 33.8 °F 25.8 °F 24.8 °F 70% 29.63 in 10.0 mi NW 10.4 mph 17.3 mph N/A   Overcast
8:55 PM 33.8 °F 25.3 °F 24.8 °F 70% 29.64 in 10.0 mi NW 11.5 mph 16.1 mph N/A   Overcast
9:15 PM 33.8 °F 25.3 °F 24.8 °F 70% 29.64 in 10.0 mi NW 11.5 mph 18.4 mph N/A   Overcast
9:35 PM 32.0 °F 23.6 °F 24.8 °F 75% 29.64 in 10.0 mi NW 10.4 mph 17.3 mph N/A   Mostly Cloudy
9:55 PM 32.0 °F 23.0 °F 24.8 °F 75% 29.64 in 10.0 mi NW 11.5 mph 17.3 mph N/A   Scattered Clouds
10:15 PM 32.0 °F 23.6 °F 24.8 °F 75% 29.64 in 10.0 mi NW 10.4 mph 18.4 mph N/A   Partly Cloudy
10:35 PM 32.0 °F 23.0 °F 24.8 °F 75% 29.64 in 10.0 mi NW 11.5 mph 18.4 mph N/A   Mostly Cloudy
10:55 PM 32.0 °F 24.2 °F 24.8 °F 75% 29.64 in 10.0 mi NW 9.2 mph 19.6 mph N/A   Overcast
11:15 PM 32.0 °F 23.0 °F 24.8 °F 75% 29.63 in 10.0 mi NW 11.5 mph 17.3 mph N/A   Overcast
11:55 PM 32.0 °F 24.2 °F 24.8 °F 75% 29.63 in 10.0 mi NW 9.2 mph 18.4 mph N/A   Overcast